Orbital Elements
Epoch 2025 May 5.0 TT = JDT 2460800.5
T 2024 Nov. 26.86442 TT Pike
q 0.8223395 (2000.0) P Q
z +0.0161289 Peri. 238.14250 +0.53690267 -0.11773668
+/-0.0008858 Node 112.54339 -0.01424737 +0.98880740
e 0.9867365 Incl. 64.75626 -0.84352388 -0.09164061
From 98 observations 2024 Dec. 25-2025 Jan. 19, mean residual 0".6.
|